• In Österreich
  • Länderverzeichnis
  • Für 7 Tage
  • Wassertemperatur
  • Satellitenkarten
  • Wetterkarte
  • News
  • Widgets
  • user-avatar
    Anmelden

    Stündliche Wetter Tavas

    Heute, 24 November, Freitag

    Zeit Temperatur Niederschläge Wind Luftdruck Luftfeuchtigkeit
    00:00 +3°C° 0 mm 1 m/S 665 mmHg 73%
    01:00 +3°C° 0 mm 1 m/S 664 mmHg 74%
    02:00 +3°C° 0 mm 1 m/S 664 mmHg 75%
    03:00 +3°C° 0 mm 1 m/S 664 mmHg 75%
    04:00 +2°C° 0 mm 1 m/S 664 mmHg 75%
    05:00 +2°C° 0 mm 1 m/S 664 mmHg 76%
    06:00 +3°C° 0 mm 1 m/S 664 mmHg 72%
    07:00 +4°C° 0 mm 1 m/S 665 mmHg 69%
    08:00 +5°C° 0 mm 1 m/S 665 mmHg 66%
    09:00 +7°C° 0 mm 1 m/S 665 mmHg 58%
    10:00 +9°C° 0 mm 1 m/S 666 mmHg 50%
    11:00 +11°C° 0 mm 1 m/S 666 mmHg 43%
    12:00 +11°C° 0 mm 1 m/S 666 mmHg 41%
    13:00 +12°C° 0 mm 1 m/S 666 mmHg 39%
    14:00 +12°C° 0 mm 1 m/S 666 mmHg 37%
    15:00 +11°C° 0 mm 1 m/S 666 mmHg 42%
    16:00 +9°C° 0 mm 1 m/S 665 mmHg 48%
    17:00 +8°C° 0 mm 1 m/S 665 mmHg 54%
    18:00 +7°C° 0 mm 1 m/S 665 mmHg 56%
    19:00 +6°C° 0 mm 1 m/S 665 mmHg 58%
    20:00 +6°C° 0 mm 1 m/S 665 mmHg 61%
    21:00 +5°C° 0 mm 1 m/S 665 mmHg 62%
    22:00 +4°C° 0 mm 0 m/S 665 mmHg 63%
    23:00 +4°C° 0 mm 0 m/S 665 mmHg 64%

    Morgen, 25 November, Samstag

    Zeit Temperatur Niederschläge Wind Luftdruck Luftfeuchtigkeit
    00:00 +3°C° 0 mm 0 m/S 665 mmHg 65%
    01:00 +3°C° 0 mm 0 m/S 665 mmHg 66%
    02:00 +3°C° 0 mm 0 m/S 665 mmHg 68%
    03:00 +3°C° 0 mm 0 m/S 665 mmHg 68%
    04:00 +4°C° 0 mm 1 m/S 665 mmHg 68%
    05:00 +4°C° 0 mm 1 m/S 665 mmHg 68%
    06:00 +4°C° 0 mm 1 m/S 665 mmHg 66%
    07:00 +5°C° 0 mm 1 m/S 665 mmHg 63%
    08:00 +6°C° 0 mm 1 m/S 666 mmHg 60%
    09:00 +8°C° 0 mm 1 m/S 666 mmHg 54%
    10:00 +9°C° 0 mm 1 m/S 667 mmHg 48%
    11:00 +11°C° 0 mm 1 m/S 667 mmHg 43%
    12:00 +12°C° 0 mm 1 m/S 667 mmHg 42%
    13:00 +12°C° 0 mm 1 m/S 667 mmHg 41%
    14:00 +12°C° 0 mm 1 m/S 666 mmHg 40%
    15:00 +11°C° 0 mm 1 m/S 666 mmHg 46%
    16:00 +9°C° 0 mm 1 m/S 666 mmHg 53%
    17:00 +7°C° 0 mm 0 m/S 665 mmHg 59%
    18:00 +6°C° 0 mm 0 m/S 665 mmHg 61%
    19:00 +6°C° 0 mm 0 m/S 665 mmHg 63%
    20:00 +5°C° 0 mm 0 m/S 665 mmHg 66%
    21:00 +5°C° 0 mm 0 m/S 665 mmHg 67%
    22:00 +5°C° 0 mm 0 m/S 665 mmHg 69%
    23:00 +4°C° 0 mm 0 m/S 665 mmHg 71%

    übermorgen, 26 November, Sonntag

    Zeit Temperatur Niederschläge Wind Luftdruck Luftfeuchtigkeit
    00:00 +4°C° 0 mm 0 m/S 665 mmHg 72%
    01:00 +5°C° 0 mm 1 m/S 665 mmHg 74%
    02:00 +5°C° 0 mm 1 m/S 665 mmHg 76%
    03:00 +4°C° 0 mm 1 m/S 664 mmHg 77%
    04:00 +4°C° 0 mm 1 m/S 664 mmHg 78%
    05:00 +4°C° 0 mm 1 m/S 664 mmHg 79%
    06:00 +5°C° 0 mm 1 m/S 664 mmHg 77%
    07:00 +5°C° 0 mm 1 m/S 665 mmHg 75%
    08:00 +6°C° 0 mm 1 m/S 665 mmHg 73%
    09:00 +8°C° 0 mm 1 m/S 666 mmHg 67%
    10:00 +10°C° 0 mm 1 m/S 666 mmHg 60%
    11:00 +12°C° 0 mm 1 m/S 666 mmHg 54%
    12:00 +12°C° 0 mm 2 m/S 666 mmHg 54%
    13:00 +12°C° 0 mm 2 m/S 666 mmHg 54%
    14:00 +13°C° 0 mm 2 m/S 666 mmHg 54%
    15:00 +10°C° 0 mm 2 m/S 665 mmHg 60%
    16:00 +10°C° 0 mm 1 m/S 665 mmHg 66%
    17:00 +9°C° 0 mm 1 m/S 665 mmHg 73%
    18:00 +9°C° 0 mm 1 m/S 665 mmHg 77%
    19:00 +8°C° 0 mm 1 m/S 665 mmHg 80%
    20:00 +7°C° 0 mm 2 m/S 665 mmHg 84%
    21:00 +7°C° 0 mm 2 m/S 665 mmHg 86%
    22:00 +6°C° 0 mm 2 m/S 665 mmHg 88%
    23:00 +6°C° 0 mm 2 m/S 665 mmHg 90%

    27 November, Montag

    Zeit Temperatur Niederschläge Wind Luftdruck Luftfeuchtigkeit
    00:00 +6°C° 0 mm 2 m/S 664 mmHg 90%
    01:00 +5°C° 0 mm 2 m/S 664 mmHg 91%
    02:00 +5°C° 0 mm 2 m/S 664 mmHg 92%
    03:00 +5°C° 0 mm 2 m/S 664 mmHg 92%
    04:00 +5°C° 0 mm 2 m/S 663 mmHg 92%
    05:00 +4°C° 0 mm 2 m/S 663 mmHg 92%
    06:00 +5°C° 0 mm 2 m/S 663 mmHg 89%
    07:00 +5°C° 0 mm 2 m/S 663 mmHg 87%
    08:00 +6°C° 0 mm 2 m/S 664 mmHg 84%
    09:00 +7°C° 0 mm 2 m/S 664 mmHg 77%
    10:00 +9°C° 0 mm 3 m/S 664 mmHg 69%
    11:00 +10°C° 0 mm 4 m/S 664 mmHg 61%
    12:00 +11°C° 0,1 mm 4 m/S 664 mmHg 59%
    13:00 +11°C° 0,1 mm 4 m/S 663 mmHg 57%
    14:00 +11°C° 0,1 mm 4 m/S 663 mmHg 56%
    15:00 +10°C° 0,3 mm 4 m/S 662 mmHg 62%
    16:00 +9°C° 0,3 mm 3 m/S 662 mmHg 67%
    17:00 +8°C° 0,3 mm 3 m/S 661 mmHg 73%
    18:00 +8°C° 1,5 mm 3 m/S 661 mmHg 77%
    19:00 +7°C° 1,5 mm 3 m/S 661 mmHg 81%
    20:00 +7°C° 1,5 mm 3 m/S 660 mmHg 84%
    21:00 +7°C° 0,8 mm 3 m/S 660 mmHg 85%
    22:00 +7°C° 0,8 mm 3 m/S 660 mmHg 85%
    23:00 +7°C° 0,8 mm 2 m/S 660 mmHg 85%

    28 November, Dienstag

    Zeit Temperatur Niederschläge Wind Luftdruck Luftfeuchtigkeit
    00:00 +6°C° 0,4 mm 2 m/S 660 mmHg 86%
    01:00 +6°C° 0,4 mm 2 m/S 659 mmHg 88%
    02:00 +5°C° 0,4 mm 2 m/S 659 mmHg 89%
    03:00 +5°C° 0,3 mm 2 m/S 659 mmHg 89%
    04:00 +5°C° 0,3 mm 2 m/S 659 mmHg 88%
    05:00 +4°C° 0,3 mm 2 m/S 659 mmHg 88%
    06:00 +5°C° 0,2 mm 2 m/S 660 mmHg 86%
    07:00 +5°C° 0,2 mm 2 m/S 660 mmHg 84%
    08:00 +4°C° 0,2 mm 3 m/S 660 mmHg 82%
    09:00 +5°C° 0,2 mm 3 m/S 660 mmHg 76%
    10:00 +7°C° 0,2 mm 3 m/S 661 mmHg 71%
    11:00 +8°C° 0,2 mm 3 m/S 661 mmHg 65%
    12:00 +8°C° 0,4 mm 3 m/S 661 mmHg 66%
    13:00 +8°C° 0,4 mm 3 m/S 660 mmHg 67%
    14:00 +8°C° 0,4 mm 3 m/S 660 mmHg 67%
    15:00 +7°C° 0,3 mm 2 m/S 660 mmHg 71%
    16:00 +6°C° 0,3 mm 2 m/S 660 mmHg 75%
    17:00 +6°C° 0,3 mm 2 m/S 660 mmHg 79%
    18:00 +5°C° 0,2 mm 2 m/S 660 mmHg 81%
    19:00 +4°C° 0,2 mm 2 m/S 660 mmHg 84%
    20:00 +5°C° 0,2 mm 1 m/S 660 mmHg 86%
    21:00 +5°C° 0,1 mm 1 m/S 660 mmHg 87%
    22:00 +4°C° 0,1 mm 1 m/S 660 mmHg 87%
    23:00 +3°C° 0,1 mm 2 m/S 660 mmHg 88%

    29 November, Mittwoch

    Zeit Temperatur Niederschläge Wind Luftdruck Luftfeuchtigkeit
    00:00 +3°C° 0,1 mm 2 m/S 660 mmHg 88%
    01:00 +2°C° 0,1 mm 2 m/S 659 mmHg 89%
    02:00 +2°C° 0,1 mm 2 m/S 659 mmHg 90%
    03:00 +3°C° 0,1 mm 1 m/S 659 mmHg 90%
    04:00 +3°C° 0,1 mm 1 m/S 659 mmHg 91%
    05:00 +2°C° 0,1 mm 1 m/S 659 mmHg 91%
    06:00 +3°C° 0 mm 1 m/S 660 mmHg 89%
    07:00 +3°C° 0 mm 1 m/S 660 mmHg 87%
    08:00 +4°C° 0 mm 1 m/S 661 mmHg 85%
    09:00 +5°C° 0 mm 1 m/S 661 mmHg 78%
    10:00 +6°C° 0 mm 1 m/S 661 mmHg 72%
    11:00 +7°C° 0 mm 1 m/S 662 mmHg 65%
    12:00 +7°C° 0,1 mm 1 m/S 662 mmHg 62%
    13:00 +7°C° 0,1 mm 2 m/S 662 mmHg 59%
    14:00 +7°C° 0,1 mm 2 m/S 662 mmHg 56%
    15:00 +6°C° 0,1 mm 2 m/S 662 mmHg 62%
    16:00 +6°C° 0,1 mm 1 m/S 662 mmHg 67%
    17:00 +5°C° 0,1 mm 1 m/S 662 mmHg 73%
    18:00 +5°C° 0 mm 1 m/S 662 mmHg 76%
    19:00 +4°C° 0 mm 1 m/S 662 mmHg 80%
    20:00 +3°C° 0 mm 0 m/S 663 mmHg 83%
    21:00 +2°C° 0 mm 0 m/S 663 mmHg 85%
    22:00 +2°C° 0 mm 0 m/S 663 mmHg 86%
    23:00 +1°C° 0 mm 0 m/S 663 mmHg 87%
    Mehr zeigen